Hurricane Symbol View the latest observations near Atlantic Potential Tropical Cyclone One.

Station RSJT2 - 8777812 - Rincon del San Jose, TX Image indicating link to RSS feed of recent meteorological observations for station RSJT2


Conditions at RSJT2 as of
(9:48 am CDT)
1448 GMT on 06/18/2024:
     

Click on the graph icon in the table below to see a time series plot of the last five days of that observation.

5-day plot - Wind Direction Wind Direction (WDIR): E ( 100 deg true )
5-day plot - Wind Speed Wind Speed (WSPD): 11.1 kts
5-day plot - Wind Gust Wind Gust (GST): 14.0 kts
5-day plot - Atmospheric Pressure Atmospheric Pressure (PRES):29.72 in
5-day plot - Air Temperature Air Temperature (ATMP): 84.7 °F
5-day plot - Water Temperature Water Temperature (WTMP): 85.5 °F
5-day plot - Wind Speed at 10 Meters Wind Speed at 10 meters (WSPD10M): 11.7 kts
5-day plot - Wind Speed at 20 Meters Wind Speed at 20 meters (WSPD20M): 11.7 kts
5-day plot -  Wind Speed, Wind Gust and Atmospheric Pressure Combined plot of Wind Speed, Gust, and Air Pressure
Previous observations
TIME
(CDT)
5-day plot - Wind Direction
WDIR
 
5-day plot - Wind Speed
WSPD
kts
5-day plot - Wind Gust
GST
kts
5-day plot - Wave Height
WVHT
ft
5-day plot - Dominant Wave Period
DPD
sec
5-day plot - Average Wave Period
APD
sec
5-day plot - Mean Wave Direction
MWD
 
5-day plot - Atmospheric Pressure
PRES
in
5-day plot - Pressure Tendency
PTDY
in
5-day plot - Air Temperature
ATMP
°F
5-day plot - Water Temperature
WTMP
°F
5-day plot - Dew Point
DEWP
°F
5-day plot - Salinity
SAL
psu
5-day plot - Visibility
VIS
nmi
5-day plot - Tide (above MLLW)
TIDE
ft
2024-06-18 09:42 am E 9.9 13.0----29.72- 84.6 85.5----
2024-06-18 09:36 am E 12.0 15.0----29.72- 84.7 85.5----
2024-06-18 09:30 am E 12.0 14.0----29.72- 84.4 85.5----
2024-06-18 09:24 am E 13.0 15.9----29.72- 84.4 85.5----
2024-06-18 09:18 am E 12.0 15.0----29.72- 84.6 85.5----
2024-06-18 09:12 amESE 13.0 15.9----29.72- 84.4 85.5----
2024-06-18 09:06 am E 14.0 18.1----29.72- 84.2 85.5----
2024-06-18 09:00 amESE 15.0 17.1----29.72+0.03 84.4 85.5----
2024-06-18 08:54 amESE 15.0 17.1----29.72- 84.4 85.6----
2024-06-18 08:48 amESE 11.1 14.0----29.72- 84.2 85.6----
2024-06-18 08:42 amESE 11.1 15.0----29.71- 83.7 85.6----
2024-06-18 08:36 amESE 12.0 15.0----29.71- 83.7 85.6----
2024-06-18 08:30 amESE 11.1 14.0----29.71- 83.8 85.6----
2024-06-18 08:24 amESE 12.0 15.0----29.71- 83.5 85.6----
2024-06-18 08:18 am E 12.0 15.0----29.72- 83.5 85.6----
2024-06-18 08:12 amESE 8.9 12.0----29.71- 83.3 85.6----
2024-06-18 08:06 amESE 11.1 14.0----29.71- 83.1 85.6----
2024-06-18 08:00 amESE 13.0 15.9----29.71+0.02 83.3 85.8----
2024-06-18 07:54 amESE 14.0 15.9----29.71- 83.3 85.8----
2024-06-18 07:48 am E 13.0 17.1----29.71- 83.3 85.8----
2024-06-18 07:42 am E 13.0 17.1----29.71- 83.1 85.8----
2024-06-18 07:36 am E 14.0 15.9----29.71- 82.9 85.8----
2024-06-18 07:30 amESE 12.0 15.0----29.70- 82.9 85.8----
2024-06-18 07:24 amESE 9.9 12.0----29.70- 82.6 85.8----
2024-06-18 07:18 amESE 12.0 15.0----29.70- 82.4 86.0----
2024-06-18 07:12 amESE 13.0 15.0----29.70- 82.2 86.0----
2024-06-18 07:06 amESE 14.0 19.0----29.70- 82.0 86.0----
2024-06-18 07:00 amESE 17.1 21.0----29.70+0.00 82.0 86.0----
2024-06-18 06:54 amESE 12.0 15.9----29.70- 83.3 86.0----
2024-06-18 06:48 amESE 14.0 15.9----29.70- 83.3 86.0----
2024-06-18 06:42 amESE 12.0 17.1----29.69- 83.3 86.2----
2024-06-18 06:36 amESE 14.0 17.1----29.69- 83.3 86.2----
2024-06-18 06:30 amESE 14.0 15.9----29.69- 83.3 86.2----
2024-06-18 06:24 amESE 13.0 15.0----29.69- 83.1 86.2----
2024-06-18 06:18 am SE 12.0 15.0----29.69- 83.1 86.2----
2024-06-18 06:12 am SE 14.0 15.9----29.69- 83.1 86.2----
2024-06-18 06:06 am SE 14.0 18.1----29.69- 83.3 86.4----
2024-06-18 06:00 am SE 14.0 17.1----29.69-0.02 83.1 86.4----
2024-06-18 05:54 amESE 14.0 17.1----29.69- 83.1 86.4----
2024-06-18 05:48 amESE 12.0 15.0----29.69- 83.1 86.4----
2024-06-18 05:42 amESE 14.0 15.9----29.69- 83.1 86.4----
2024-06-18 05:36 amESE 13.0 17.1----29.69- 83.1 86.4----
2024-06-18 05:30 amESE 12.0 15.9----29.69- 82.9 86.4----
2024-06-18 05:24 amESE 13.0 15.9----29.69- 82.9 86.5----
2024-06-18 05:18 amESE 12.0 15.0----29.69- 82.9 86.5----
2024-06-18 05:12 amESE 13.0 15.9----29.70- 83.3 86.5----
2024-06-18 05:06 am SE 15.9 18.1----29.70- 83.5 86.5----
2024-06-18 05:00 amESE 13.0 15.9----29.69-0.04 83.3 86.5----
2024-06-18 04:54 amESE 11.1 15.0----29.69- 83.3 86.5----
2024-06-18 04:48 amESE 14.0 15.9----29.70- 83.5 86.7----
2024-06-18 04:42 amESE 13.0 17.1----29.70- 83.5 86.7----
2024-06-18 04:36 amESE 14.0 19.0----29.69- 83.5 86.7----
2024-06-18 04:30 amESE 14.0 17.1----29.70- 83.3 86.7----
2024-06-18 04:24 amESE 13.0 17.1----29.69- 83.3 86.7----
2024-06-18 04:18 amESE 15.0 17.1----29.69- 83.3 86.7----
2024-06-18 04:12 amESE 15.0 18.1----29.70- 83.3 86.9----
2024-06-18 04:06 amESE 15.0 19.0----29.70- 83.5 86.9----
2024-06-18 04:00 amESE 17.1 20.0----29.69-0.06 83.3 86.9----
2024-06-18 03:54 amESE 17.1 20.0----29.70- 83.5 86.9----
2024-06-18 03:48 amESE 18.1 21.0----29.70- 83.5 86.9----
2024-06-18 03:42 amESE 17.1 20.0----29.70- 83.3 87.1----
2024-06-18 03:36 amESE 15.9 19.0----29.70- 83.1 87.1----
2024-06-18 03:30 amESE 15.9 19.0----29.70- 81.9 87.1----
2024-06-18 03:24 am E 18.1 22.0----29.71- 81.7 87.1----
2024-06-18 03:18 amESE 13.0 17.1----29.70- 83.8 87.1----
2024-06-18 03:12 amESE 12.0 15.0----29.71- 83.7 87.3----
2024-06-18 03:06 amESE 13.0 17.1----29.71- 83.8 87.3----
2024-06-18 03:00 amESE 15.9 18.1----29.71-0.06 84.0 87.3----
2024-06-18 02:54 amESE 15.9 20.0----29.71- 84.0 87.3----
2024-06-18 02:48 amESE 13.0 15.9----29.71- 83.7 87.3----
2024-06-18 02:42 amESE 15.0 17.1----29.72- 83.8 87.4----
2024-06-18 02:36 amESE 15.9 19.0----29.72- 84.0 87.4----
2024-06-18 02:30 am SE 15.9 19.0----29.72- 83.8 87.4----
2024-06-18 02:24 amESE 15.9 20.0----29.72- 83.8 87.4----
2024-06-18 02:18 amESE 18.1 22.0----29.73- 83.3 87.4----
2024-06-18 02:12 amESE 15.9 21.0----29.73- 83.8 87.6----
2024-06-18 02:06 am SE 18.1 21.0----29.73- 84.0 87.6----
2024-06-18 02:00 am SE 19.0 22.0----29.73-0.03 84.2 87.6----
2024-06-18 01:54 am SE 19.0 22.0----29.74- 84.2 87.6----
2024-06-18 01:48 amESE 17.1 22.0----29.74- 84.2 87.8----
2024-06-18 01:42 am SE 19.0 22.0----29.75- 84.2 87.8----
2024-06-18 01:36 am SE 19.0 22.9----29.75- 84.2 87.8----
2024-06-18 01:30 amESE 20.0 22.0----29.75- 84.0 87.8----
2024-06-18 01:24 am SE 17.1 21.0----29.75- 84.2 88.0----
2024-06-18 01:18 amESE 19.0 21.0----29.75- 84.2 88.0----
2024-06-18 01:12 am SE 17.1 20.0----29.75- 84.0 88.0----
2024-06-18 01:06 am SE 15.9 19.0----29.75- 84.0 88.0----
2024-06-18 01:00 am SE 17.1 20.0----29.75+0.00 84.2 88.0----
2024-06-18 12:54 am SE 18.1 22.0----29.75- 84.0 88.0----
2024-06-18 12:48 amESE 19.0 22.0----29.76- 84.0 88.3----
2024-06-18 12:42 amESE 19.0 22.9----29.76- 84.0 88.3----
2024-06-18 12:36 am SE 17.1 21.0----29.76- 83.8 88.3----
2024-06-18 12:30 am SE 17.1 21.0----29.76- 84.0 88.5----
2024-06-18 12:24 am SE 19.0 22.0----29.76- 84.0 88.5----
2024-06-18 12:18 am SE 19.0 22.0----29.76- 83.8 88.5----
2024-06-18 12:12 am SE 17.1 21.0----29.76- 84.0 88.7----
2024-06-18 12:06 am SE 17.1 21.0----29.76- 84.0 88.7----
2024-06-18 12:00 am SE 18.1 22.0----29.77+0.02 84.0 88.7----
2024-06-17 11:54 pm SE 19.0 22.0----29.77- 84.0 88.9----
2024-06-17 11:48 pmESE 20.0 24.1----29.77- 84.2 88.9----
2024-06-17 11:42 pm SE 17.1 21.0----29.77- 84.0 88.9----
2024-06-17 11:36 pm SE 17.1 22.9----29.77- 83.8 89.1----
2024-06-17 11:30 pmESE 19.0 22.0----29.77- 84.0 89.1----
2024-06-17 11:24 pm SE 19.0 22.0----29.76- 84.0 89.1----
2024-06-17 11:18 pmESE 19.0 22.0----29.76- 84.2 89.1----
2024-06-17 11:12 pmESE 18.1 22.0----29.76- 84.2 89.2----
2024-06-17 11:06 pmESE 18.1 21.0----29.76- 83.8 89.2----
2024-06-17 11:00 pm SE 20.0 22.9----29.76+0.03 84.2 89.2----
2024-06-17 10:54 pmESE 19.0 22.9----29.76- 84.4 89.4----
2024-06-17 10:48 pm SE 20.0 24.1----29.76- 84.0 89.4----
2024-06-17 10:42 pm SE 20.0 22.9----29.76- 84.2 89.4----
2024-06-17 10:36 pmESE 20.0 22.9----29.76- 84.0 89.6----
2024-06-17 10:30 pmESE 19.0 24.1----29.75- 84.4 89.6----
2024-06-17 10:24 pm SE 18.1 22.9----29.75- 84.2 89.6----
2024-06-17 10:18 pm SE 20.0 22.9----29.76- 84.2 89.6----
2024-06-17 10:12 pmESE 20.0 22.9----29.75- 84.2 89.8----
2024-06-17 10:06 pmESE 19.0 22.9----29.75- 84.4 89.8----
2024-06-17 10:00 pm SE 20.0 22.9----29.75+0.03 84.2 89.8----
2024-06-17 09:54 pmESE 20.0 24.1----29.75- 84.4 90.0----
2024-06-17 09:48 pm SE 20.0 22.9----29.75- 84.0 90.0----
2024-06-17 09:42 pm SE 20.0 24.1----29.75- 84.0 90.0----
2024-06-17 09:36 pmESE 21.0 24.1----29.75- 83.7 90.1----
2024-06-17 09:30 pmESE 18.1 22.9----29.75- 83.7 90.1----
2024-06-17 09:24 pmESE 19.0 25.1----29.75- 82.6 90.1----
2024-06-17 09:18 pmESE 19.0 22.0----29.75- 83.1 90.3----
2024-06-17 09:12 pm E 18.1 22.0----29.74- 83.1 90.3----
2024-06-17 09:06 pm E 18.1 22.0----29.74- 82.9 90.3----
2024-06-17 09:00 pm E 19.0 22.9----29.74+0.03 82.9 90.5----
2024-06-17 08:54 pmESE 22.0 26.0----29.74- 83.3 90.5----
2024-06-17 08:48 pmESE 22.9 28.0----29.74- 83.1 90.5----
2024-06-17 08:42 pmESE 22.0 27.0----29.75- 82.9 90.5----
2024-06-17 08:36 pmESE 26.0 29.9----29.75- 82.8 90.7----
2024-06-17 08:30 pmESE 25.1 31.1------ 83.3 90.7----
2024-06-17 08:24 pmESE 25.1 28.0------ 84.0 90.7----
2024-06-17 08:18 pmESE 21.0 25.1----29.73- 84.2 90.7----
2024-06-17 08:12 pmESE 22.9 25.1----29.73- 83.8 90.9----
2024-06-17 08:06 pm SE 22.0 26.0----29.73- 84.0 90.9----
2024-06-17 08:00 pmESE 22.0 28.9----29.73+0.01 83.8 90.9----
2024-06-17 07:54 pmESE 24.1 27.0----29.73- 84.0 90.9----
2024-06-17 07:48 pmESE 21.0 25.1----29.72- 85.1 90.9----
2024-06-17 07:42 pmESE 21.0 25.1----29.72- 85.1 90.9----
2024-06-17 07:36 pm SE 22.9 28.0----29.72- 84.9 91.0----
2024-06-17 07:30 pm SE 21.0 25.1----29.72- 84.6 91.0----
2024-06-17 07:24 pm SE 19.0 25.1----29.72- 83.7 91.0----
2024-06-17 07:18 pm SE 22.9 29.9----29.73- 83.5 91.0----
2024-06-17 07:12 pmESE 22.9 28.0----29.73- 84.0 91.0----
2024-06-17 07:06 pm SE 24.1 28.0----29.73- 84.9 91.0----
2024-06-17 07:00 pmESE 20.0 28.0----29.72+0.00 86.0 91.0----
2024-06-17 06:54 pmESE 22.0 27.0----29.72- 85.8 91.0----
2024-06-17 06:48 pmESE 21.0 24.1----29.72- 85.5 91.0----
2024-06-17 06:42 pm SE 20.0 26.0----29.72- 85.8 91.0----
2024-06-17 06:36 pm SE 21.0 25.1----29.72- 85.5 91.0----
2024-06-17 06:30 pm SE 22.0 25.1----29.72- 85.6 91.0----
2024-06-17 06:24 pm SE 22.0 26.0----29.72- 85.5 91.0----
2024-06-17 06:18 pm SE 22.0 25.1----29.72- 85.3 91.0----
2024-06-17 06:12 pmESE 20.0 24.1----29.72- 85.6 91.0----
2024-06-17 06:06 pmESE 21.0 25.1----29.72- 85.6 90.9----
2024-06-17 06:00 pmESE 18.1 22.9----29.71-0.01 86.7 90.9----
2024-06-17 05:54 pmESE 20.0 24.1----29.72- 86.0 90.9----
2024-06-17 05:48 pmESE 17.1 21.0----29.71- 86.5 90.9----
2024-06-17 05:42 pmESE 18.1 22.0----29.71- 86.2 90.9----
2024-06-17 05:36 pmESE 15.9 19.0----29.71- 86.7 90.7----
2024-06-17 05:30 pmESE 18.1 22.0----29.71- 86.4 90.7----
2024-06-17 05:24 pmESE 17.1 20.0----29.71- 86.7 90.7----
2024-06-17 05:18 pmESE 18.1 21.0----29.71- 86.5 90.7----
2024-06-17 05:12 pmESE 15.9 21.0----29.71- 86.7 90.5----
2024-06-17 05:06 pmESE 17.1 19.0----29.71- 86.7 90.5----
2024-06-17 05:00 pm-------29.72-0.02- 90.5----
2024-06-17 04:54 pm-------29.71-- 90.5----
2024-06-17 04:48 pmESE 18.1 21.0----29.72-- 90.3----
2024-06-17 04:42 pmESE 17.1 21.0----29.72-- 90.3----
2024-06-17 04:36 pmESE 17.1 22.0----29.72-- 90.3----
2024-06-17 04:30 pmESE 18.1 22.0----29.72- 86.9 90.3----
2024-06-17 04:24 pmESE 19.0 22.0----29.72- 86.7 90.1----
2024-06-17 04:18 pmESE 18.1 24.1------ 86.9 90.1----
2024-06-17 04:12 pmESE 19.0 24.1------ 86.5 90.1----
2024-06-17 04:06 pmESE 18.1 22.0------ 86.7 90.0----
2024-06-17 04:00 pmESE 18.1 22.9----29.72-0.02 86.5 90.0----
2024-06-17 03:54 pmESE 15.9 21.0----29.72- 86.9 90.0----
2024-06-17 03:48 pmESE 17.1 19.0----29.72- 86.7 89.8----
2024-06-17 03:42 pm SE 15.0 20.0----29.72- 86.9 89.8----
2024-06-17 03:36 pm SE 17.1 20.0----29.72- 86.9 89.6----
2024-06-17 03:30 pmESE 15.9 20.0----29.72- 87.4 89.6----
2024-06-17 03:24 pmESE 17.1 21.0----29.72- 86.9 89.6----
2024-06-17 03:18 pmESE 15.0 18.1----29.72- 86.9 89.4----
2024-06-17 03:12 pmESE 14.0 17.1----29.72- 87.1 89.4----
2024-06-17 03:06 pm SE 14.0 18.1----29.73- 87.1 89.4----
2024-06-17 03:00 pm SE 14.0 15.9----29.73-0.02 86.7 89.2----
2024-06-17 02:54 pmESE 14.0 18.1----29.73- 87.1 89.2----
2024-06-17 02:48 pm SE 13.0 18.1----29.73- 87.3 89.2----
2024-06-17 02:42 pm SE 14.0 19.0----29.73- 87.1 89.1----
2024-06-17 02:36 pmESE 15.0 18.1----29.73- 87.1 89.1----
2024-06-17 02:30 pmESE 15.0 18.1----29.74- 86.9 88.9----
2024-06-17 02:24 pmESE 14.0 17.1----29.73- 87.4 88.9----
2024-06-17 02:18 pm SE 13.0 15.0----29.73- 87.3 88.9----
2024-06-17 02:12 pm SE 14.0 15.9----29.73- 87.4 88.7----
2024-06-17 02:06 pm SE 15.9 18.1----29.74- 87.1 88.7----
2024-06-17 02:00 pmESE 15.0 18.1----29.74-0.01 87.1 88.7----
2024-06-17 01:54 pm SE 14.0 17.1----29.73- 87.3 88.5----
2024-06-17 01:48 pmESE 14.0 17.1----29.73- 87.3 88.5----
2024-06-17 01:42 pmESE 13.0 15.9----29.73- 87.3 88.5----
2024-06-17 01:36 pmESE 14.0 17.1----29.74- 87.3 88.5----
2024-06-17 01:30 pm SE 14.0 18.1----29.74- 87.3 88.3----
2024-06-17 01:24 pmESE 14.0 15.9----29.73- 87.4 88.3----
2024-06-17 01:18 pm SE 13.0 15.9----29.73- 86.9 88.3----
2024-06-17 01:12 pmESE 14.0 15.9----29.74- 86.9 88.2----
2024-06-17 01:06 pmESE 12.0 15.0----29.73- 86.9 88.2----
2024-06-17 01:00 pm SE 13.0 15.0----29.74+0.00 87.1 88.2----
2024-06-17 12:54 pmESE 12.0 15.0----29.74- 87.1 88.0----
2024-06-17 12:48 pm SE 14.0 15.0----29.74- 86.9 88.0----
2024-06-17 12:42 pmESE 12.0 14.0----29.74- 86.9 88.0----
2024-06-17 12:36 pmESE 12.0 13.0----29.74- 86.9 87.8----
2024-06-17 12:30 pmESE 12.0 15.9----29.75- 87.3 87.8----
2024-06-17 12:24 pmESE 12.0 14.0----29.75- 87.1 87.8----
2024-06-17 12:18 pmESE 13.0 15.9----29.75- 86.9 87.8----
2024-06-17 12:12 pmESE 14.0 18.1----29.75- 86.7 87.6----
2024-06-17 12:06 pm SE 12.0 15.0----29.75- 86.5 87.6----
2024-06-17 12:00 pmESE 15.0 17.1----29.75+0.01 86.7 87.6----
2024-06-17 11:54 am SE 12.0 15.0----29.75- 86.9 87.6----
2024-06-17 11:48 amESE 13.0 15.0----29.75- 86.5 87.6----
2024-06-17 11:42 am SE 14.0 15.9----29.75- 86.5 87.4----
2024-06-17 11:36 amESE 12.0 15.9----29.75- 86.5 87.4----
2024-06-17 11:30 am SE 11.1 14.0----29.75- 86.7 87.4----
2024-06-17 11:24 am SE 12.0 14.0----29.75- 86.4 87.4----
2024-06-17 11:18 am SE 11.1 15.0----29.75- 86.4 87.4----
2024-06-17 11:12 am SE 12.0 14.0----29.75- 86.2 87.4----
2024-06-17 11:06 amESE 12.0 14.0----29.75- 86.4 87.4----
2024-06-17 11:00 am SE 12.0 15.0----29.75+0.01 86.2 87.3----
2024-06-17 10:54 amESE 11.1 13.0----29.75- 86.0 87.3----
2024-06-17 10:48 amESE 11.1 13.0----29.75- 85.8 87.3----
2024-06-17 10:42 am SE 12.0 14.0----29.75- 85.8 87.3----
2024-06-17 10:36 amESE 9.9 12.0----29.75- 85.5 87.3----
2024-06-17 10:30 amESE 11.1 13.0----29.75-- 87.3----
2024-06-17 10:24 am E 11.1 14.0----29.75-- 87.3----
2024-06-17 10:18 am SE 12.0 14.0----29.75- 84.7 87.3----
2024-06-17 10:12 amESE 12.0 15.9----29.75- 85.1 87.3----
2024-06-17 10:06 am SE 11.1 15.0----29.75- 84.6 87.3----
2024-06-17 10:00 am S 11.1 12.0----29.74+0.01 84.2 87.3----
2024-06-17 09:54 amSSE 8.9 9.9----29.74- 84.7 87.3----